RPA5621 KJAX-KJFK

Flight info

Callsign RPA5621
Flight time 1h 41m
Altitude 33000
Route CROSB2 WISPR JROSS JOHAR Q109 DFENC SAWED Q108 SIE CAMRN5
Aircraft E75L/M-SDE3GILORVW/S

Departure

Time 2026-04-30 20:51
Airport Jacksonville International Airport (KJAX)

Arrival

Time 2026-04-30 22:33
Airport John F. Kennedy International Airport (KJFK)
Time Latitude Longitude Altitude Speed Heading
2026-04-30 20:32 30.49284 -81.68618 33 ft 0 kts 104°
2026-04-30 20:41 30.49286 -81.68619 33 ft 3 kts 87°
2026-04-30 20:41 30.49290 -81.68637 33 ft 3 kts 111°
2026-04-30 20:42 30.49297 -81.68659 33 ft 3 kts 112°
2026-04-30 20:42 30.49304 -81.68681 33 ft 3 kts 99°
2026-04-30 20:42 30.49304 -81.68700 33 ft 1 kts 355°
2026-04-30 20:43 30.49300 -81.68700 33 ft 0 kts 355°
2026-04-30 20:44 30.49314 -81.68701 33 ft 5 kts 355°
2026-04-30 20:45 30.49447 -81.68684 33 ft 13 kts 45°
2026-04-30 20:45 30.49505 -81.68597 33 ft 14 kts 56°
2026-04-30 20:45 30.49578 -81.68514 33 ft 16 kts 21°
2026-04-30 20:46 30.49891 -81.68443 33 ft 10 kts 11°
2026-04-30 20:46 30.49939 -81.68394 33 ft 10 kts 69°
2026-04-30 20:47 30.49994 -81.68213 33 ft 13 kts 71°
2026-04-30 20:47 30.50026 -81.68105 33 ft 15 kts 71°
2026-04-30 20:48 30.50100 -81.67856 33 ft 18 kts 69°
2026-04-30 20:48 30.50145 -81.67717 33 ft 19 kts 70°
2026-04-30 20:48 30.50191 -81.67566 33 ft 21 kts 71°
2026-04-30 20:48 30.50238 -81.67404 33 ft 22 kts 71°
2026-04-30 20:49 30.50293 -81.67237 33 ft 23 kts 70°
2026-04-30 20:49 30.50335 -81.67105 33 ft 12 kts 69°
2026-04-30 20:49 30.50363 -81.67005 33 ft 13 kts 73°
2026-04-30 20:50 30.50495 -81.66998 34 ft 12 kts 341°
2026-04-30 20:50 30.50520 -81.67065 33 ft 11 kts 251°
2026-04-30 20:50 30.50465 -81.67239 32 ft 55 kts 250°
2026-04-30 20:50 30.50246 -81.67957 36 ft 132 kts 250°
2026-04-30 20:51 30.49884 -81.69160 402 ft 174 kts 251°
2026-04-30 20:51 30.49017 -81.72052 2401 ft 197 kts 250°
2026-04-30 20:51 30.48554 -81.73575 3410 ft 202 kts 251°
2026-04-30 20:52 30.48072 -81.75156 4386 ft 213 kts 252°
2026-04-30 20:52 30.47568 -81.76847 5298 ft 231 kts 253°
2026-04-30 20:52 30.47427 -81.80656 7193 ft 257 kts 291°
2026-04-30 20:53 30.48347 -81.82261 8191 ft 265 kts 311°
2026-04-30 20:53 30.49888 -81.83487 9298 ft 277 kts 333°
2026-04-30 20:53 30.51814 -81.83885 10325 ft 293 kts 356°
2026-04-30 20:54 30.55847 -81.81767 11236 ft 347 kts 30°
2026-04-30 20:54 30.57668 -81.79917 12381 ft 347 kts 36°
2026-04-30 20:54 30.59494 -81.78078 13376 ft 350 kts 35°
2026-04-30 20:55 30.63236 -81.74301 15347 ft 362 kts 35°
2026-04-30 20:55 30.65159 -81.72348 16197 ft 371 kts 36°
2026-04-30 20:55 30.67107 -81.70359 17102 ft 375 kts 36°
2026-04-30 20:56 30.71072 -81.66296 18755 ft 385 kts 36°
2026-04-30 20:56 30.73092 -81.64218 19466 ft 391 kts 36°
2026-04-30 20:56 30.77190 -81.59988 20802 ft 402 kts 36°
2026-04-30 20:57 30.79288 -81.57808 21456 ft 408 kts 36°
2026-04-30 20:57 30.81416 -81.55602 22050 ft 413 kts 36°
2026-04-30 20:57 30.83571 -81.53361 22611 ft 419 kts 36°
2026-04-30 20:58 30.88298 -81.49501 23645 ft 412 kts 14°
2026-04-30 20:58 30.91011 -81.48427 24194 ft 413 kts 11°
2026-04-30 20:58 30.93762 -81.47448 24709 ft 412 kts
2026-04-30 20:58 30.96555 -81.46734 25283 ft 410 kts
2026-04-30 20:59 31.02176 -81.45465 26436 ft 413 kts
2026-04-30 20:59 31.05004 -81.44827 26988 ft 414 kts
2026-04-30 21:00 31.10675 -81.43547 28033 ft 417 kts
2026-04-30 21:00 31.16376 -81.42261 29025 ft 419 kts
2026-04-30 21:01 31.22112 -81.40968 29884 ft 421 kts
2026-04-30 21:01 31.24988 -81.40319 30307 ft 422 kts
2026-04-30 21:01 31.30779 -81.39036 31032 ft 425 kts
2026-04-30 21:02 31.33684 -81.38401 31406 ft 426 kts
2026-04-30 21:02 31.36596 -81.37755 31783 ft 427 kts
2026-04-30 21:02 31.39523 -81.37100 32107 ft 429 kts
2026-04-30 21:02 31.42442 -81.36442 32579 ft 426 kts
2026-04-30 21:03 31.45346 -81.35783 32938 ft 426 kts
2026-04-30 21:03 31.51270 -81.34446 32915 ft 440 kts
2026-04-30 21:04 31.57317 -81.33067 32928 ft 444 kts
2026-04-30 21:04 31.66438 -81.30980 32837 ft 445 kts
2026-04-30 21:05 31.72520 -81.29586 32831 ft 445 kts
2026-04-30 21:05 31.78568 -81.28197 32831 ft 446 kts
2026-04-30 21:06 31.84654 -81.26800 32831 ft 446 kts
2026-04-30 21:06 31.90839 -81.25381 32844 ft 454 kts
2026-04-30 21:07 31.97031 -81.23954 32821 ft 457 kts
2026-04-30 21:07 32.03260 -81.22230 32825 ft 476 kts 12°
2026-04-30 21:08 32.06204 -81.20220 32876 ft 499 kts 25°
2026-04-30 21:08 32.09009 -81.17762 32875 ft 504 kts 27°
2026-04-30 21:08 32.14602 -81.12802 32858 ft 502 kts 26°
2026-04-30 21:09 32.20204 -81.07850 32857 ft 504 kts 26°
2026-04-30 21:09 32.25811 -81.02892 32859 ft 503 kts 26°
2026-04-30 21:10 32.31425 -80.97926 32864 ft 505 kts 27°
2026-04-30 21:10 32.37044 -80.92947 32862 ft 505 kts 27°
2026-04-30 21:11 32.42667 -80.87957 32859 ft 506 kts 27°
2026-04-30 21:11 32.48298 -80.82954 32859 ft 506 kts 27°
2026-04-30 21:12 32.53930 -80.77942 32867 ft 506 kts 27°
2026-04-30 21:12 32.59560 -80.72924 32873 ft 508 kts 27°
2026-04-30 21:13 32.65207 -80.67883 32884 ft 508 kts 27°
2026-04-30 21:13 32.70845 -80.62810 32881 ft 514 kts 29°
2026-04-30 21:14 32.73508 -80.59908 32884 ft 525 kts 37°
2026-04-30 21:14 32.76021 -80.56746 32880 ft 526 kts 37°
2026-04-30 21:14 32.81068 -80.50462 32879 ft 525 kts 37°
2026-04-30 21:15 32.85278 -80.45251 32878 ft 525 kts 37°
2026-04-30 21:15 32.90349 -80.38991 32878 ft 525 kts 36°
2026-04-30 21:16 32.95424 -80.32723 32870 ft 526 kts 36°
2026-04-30 21:16 33.00498 -80.26453 32858 ft 526 kts 36°
2026-04-30 21:17 33.05576 -80.20169 32860 ft 526 kts 36°
2026-04-30 21:17 33.10651 -80.13879 32871 ft 526 kts 36°
2026-04-30 21:18 33.15725 -80.07583 32879 ft 527 kts 36°
2026-04-30 21:18 33.20801 -80.01272 32879 ft 527 kts 36°
2026-04-30 21:19 33.25872 -79.94954 32881 ft 527 kts 36°
2026-04-30 21:19 33.30945 -79.88626 32877 ft 527 kts 36°
2026-04-30 21:20 33.36008 -79.82295 32878 ft 525 kts 36°
2026-04-30 21:20 33.41053 -79.75972 32903 ft 525 kts 36°
2026-04-30 21:21 33.46103 -79.69636 32897 ft 525 kts 36°
2026-04-30 21:22 33.53666 -79.60126 32901 ft 526 kts 36°
2026-04-30 21:23 33.63766 -79.47389 32887 ft 527 kts 36°
2026-04-30 21:23 33.71338 -79.37806 32906 ft 527 kts 36°
2026-04-30 21:24 33.76382 -79.31410 32900 ft 527 kts 37°
2026-04-30 21:24 33.81397 -79.25036 32897 ft 527 kts 37°
2026-04-30 21:25 33.88944 -79.15426 32895 ft 527 kts 37°
2026-04-30 21:26 33.96459 -79.05839 32909 ft 528 kts 37°
2026-04-30 21:27 34.04025 -78.96161 32897 ft 531 kts 37°
2026-04-30 21:27 34.09092 -78.89666 32898 ft 531 kts 37°
2026-04-30 21:28 34.16699 -78.79893 32897 ft 533 kts 37°
2026-04-30 21:29 34.24301 -78.70098 32896 ft 532 kts 38°
2026-04-30 21:30 34.37415 -78.54564 32908 ft 518 kts 26°
2026-04-30 21:31 34.51733 -78.41280 32887 ft 519 kts 27°
2026-04-30 21:32 34.60290 -78.33243 32890 ft 518 kts 28°
2026-04-30 21:32 34.65990 -78.27871 32907 ft 518 kts 28°
2026-04-30 21:33 34.74537 -78.19791 32903 ft 519 kts 28°
2026-04-30 21:34 34.80237 -78.14393 32899 ft 520 kts 28°
2026-04-30 21:34 34.88801 -78.06246 32903 ft 521 kts 28°
2026-04-30 21:35 34.94498 -78.00795 32901 ft 519 kts 28°
2026-04-30 21:35 35.00187 -77.95348 32900 ft 523 kts 29°
2026-04-30 21:36 35.05909 -77.89859 32893 ft 523 kts 29°
2026-04-30 21:37 35.17337 -77.78861 32897 ft 523 kts 29°
2026-04-30 21:37 35.23048 -77.73349 32912 ft 523 kts 29°
2026-04-30 21:38 35.28759 -77.67831 32905 ft 523 kts 29°
2026-04-30 21:38 35.34463 -77.62308 32905 ft 523 kts 29°
2026-04-30 21:39 35.40167 -77.56775 32909 ft 523 kts 29°
2026-04-30 21:39 35.45868 -77.51233 32900 ft 523 kts 29°
2026-04-30 21:40 35.51568 -77.45682 32894 ft 523 kts 30°
2026-04-30 21:40 35.57280 -77.40109 32882 ft 524 kts 30°
2026-04-30 21:41 35.62984 -77.34533 32880 ft 524 kts 30°
2026-04-30 21:41 35.68688 -77.28947 32881 ft 524 kts 30°
2026-04-30 21:42 35.74390 -77.23354 32882 ft 525 kts 30°
2026-04-30 21:42 35.80099 -77.17740 32882 ft 525 kts 30°
2026-04-30 21:43 35.85805 -77.12121 32883 ft 525 kts 30°
2026-04-30 21:43 35.91524 -77.06494 32885 ft 525 kts 30°
2026-04-30 21:44 35.97631 -77.01783 32899 ft 515 kts 22°
2026-04-30 21:44 36.03848 -76.97338 32887 ft 517 kts 23°
2026-04-30 21:45 36.10071 -76.92840 32886 ft 518 kts 24°
2026-04-30 21:45 36.16254 -76.88344 32886 ft 518 kts 24°
2026-04-30 21:46 36.22466 -76.83812 32894 ft 519 kts 24°
2026-04-30 21:46 36.28676 -76.79268 32886 ft 519 kts 24°
2026-04-30 21:47 36.34898 -76.74705 32886 ft 520 kts 24°
2026-04-30 21:47 36.41124 -76.70131 32892 ft 521 kts 24°
2026-04-30 21:48 36.47352 -76.65545 32884 ft 519 kts 24°
2026-04-30 21:48 36.53582 -76.60947 32881 ft 521 kts 25°
2026-04-30 21:49 36.59808 -76.56348 32879 ft 521 kts 25°
2026-04-30 21:49 36.66044 -76.51731 32877 ft 521 kts 25°
2026-04-30 21:50 36.72252 -76.47127 32880 ft 521 kts 25°
2026-04-30 21:50 36.78481 -76.42497 32878 ft 522 kts 25°
2026-04-30 21:51 36.84727 -76.37846 32879 ft 522 kts 25°
2026-04-30 21:51 36.90968 -76.33187 32883 ft 523 kts 25°
2026-04-30 21:52 36.97211 -76.28520 32881 ft 524 kts 25°
2026-04-30 21:52 37.03468 -76.23831 32871 ft 525 kts 25°
2026-04-30 21:53 37.09743 -76.19124 32855 ft 525 kts 25°
2026-04-30 21:53 37.15934 -76.14465 32868 ft 517 kts 25°
2026-04-30 21:54 37.22100 -76.09823 32865 ft 518 kts 25°
2026-04-30 21:54 37.28274 -76.05162 32865 ft 517 kts 25°
2026-04-30 21:55 37.34441 -76.00502 32869 ft 518 kts 25°
2026-04-30 21:55 37.40616 -75.95822 32879 ft 520 kts 26°
2026-04-30 21:56 37.46810 -75.91117 32883 ft 520 kts 26°
2026-04-30 21:56 37.53006 -75.86403 32879 ft 520 kts 26°
2026-04-30 21:57 37.59195 -75.81700 32880 ft 519 kts 26°
2026-04-30 21:57 37.65378 -75.77002 32882 ft 519 kts 26°
2026-04-30 21:58 37.71568 -75.72289 32880 ft 520 kts 26°
2026-04-30 21:58 37.76713 -75.68365 32878 ft 519 kts 26°
2026-04-30 21:59 37.82894 -75.63641 32880 ft 520 kts 27°
2026-04-30 22:00 37.91931 -75.55979 32871 ft 522 kts 31°
2026-04-30 22:00 38.00880 -75.48113 32871 ft 522 kts 31°
2026-04-30 22:01 38.06862 -75.42887 32873 ft 521 kts 29°
2026-04-30 22:01 38.12991 -75.37962 32867 ft 522 kts 28°
2026-04-30 22:02 38.19128 -75.32999 32868 ft 523 kts 28°
2026-04-30 22:02 38.25324 -75.28184 32871 ft 520 kts 22°
2026-04-30 22:03 38.28632 -75.26432 32863 ft 507 kts 13°
2026-04-30 22:03 38.32009 -75.25350 32899 ft 497 kts
2026-04-30 22:03 38.38819 -75.24546 32885 ft 492 kts 359°
2026-04-30 22:04 38.45635 -75.23514 32870 ft 494 kts
2026-04-30 22:04 38.52409 -75.22261 32847 ft 480 kts
2026-04-30 22:05 38.55663 -75.21618 32894 ft 472 kts
2026-04-30 22:05 38.62161 -75.20301 32894 ft 477 kts
2026-04-30 22:06 38.68722 -75.18876 32832 ft 482 kts
2026-04-30 22:06 38.75046 -75.15718 32326 ft 496 kts 26°
2026-04-30 22:06 38.77908 -75.13211 32086 ft 501 kts 36°
2026-04-30 22:07 38.80490 -75.10194 31846 ft 503 kts 42°
2026-04-30 22:07 38.83064 -75.07143 31599 ft 505 kts 39°
2026-04-30 22:07 38.85717 -75.04190 31346 ft 505 kts 38°
2026-04-30 22:07 38.88405 -75.01295 31093 ft 504 kts 37°
2026-04-30 22:08 38.91131 -74.98451 30843 ft 505 kts 36°
2026-04-30 22:08 38.93879 -74.95630 30593 ft 505 kts 36°
2026-04-30 22:08 38.96641 -74.92835 30341 ft 506 kts 35°
2026-04-30 22:08 38.99415 -74.90054 30090 ft 507 kts 35°
2026-04-30 22:09 39.02204 -74.87271 29834 ft 507 kts 34°
2026-04-30 22:09 39.04996 -74.84490 29592 ft 508 kts 34°
2026-04-30 22:09 39.07792 -74.81716 29337 ft 507 kts 34°
2026-04-30 22:09 39.10588 -74.78935 29084 ft 509 kts 36°
2026-04-30 22:10 39.16001 -74.73070 28627 ft 513 kts 37°
2026-04-30 22:10 39.18743 -74.70096 27771 ft 511 kts 37°
2026-04-30 22:10 39.21441 -74.67172 27079 ft 502 kts 37°
2026-04-30 22:11 39.26696 -74.61476 25730 ft 485 kts 37°
2026-04-30 22:11 39.29262 -74.58695 25083 ft 478 kts 37°
2026-04-30 22:11 39.31792 -74.55954 24455 ft 472 kts 37°
2026-04-30 22:12 39.34293 -74.53242 23831 ft 467 kts 37°
2026-04-30 22:12 39.36763 -74.50562 23215 ft 462 kts 37°
2026-04-30 22:12 39.39212 -74.47903 22604 ft 458 kts 37°
2026-04-30 22:12 39.41638 -74.45266 22002 ft 453 kts 37°
2026-04-30 22:13 39.44030 -74.42657 21399 ft 448 kts 37°
2026-04-30 22:13 39.46390 -74.40080 21028 ft 441 kts 37°
2026-04-30 22:13 39.48743 -74.37508 20364 ft 442 kts 37°
2026-04-30 22:13 39.51078 -74.34956 19794 ft 437 kts 37°
2026-04-30 22:14 39.53386 -74.32429 19215 ft 432 kts 37°
2026-04-30 22:14 39.55667 -74.29930 18646 ft 427 kts 38°
2026-04-30 22:14 39.57925 -74.27451 18176 ft 422 kts 38°
2026-04-30 22:14 39.60149 -74.25008 18035 ft 418 kts 38°
2026-04-30 22:15 39.62374 -74.22571 18015 ft 419 kts 38°
2026-04-30 22:15 39.64591 -74.20130 18003 ft 413 kts 38°
2026-04-30 22:15 39.66754 -74.17750 17959 ft 406 kts 38°
2026-04-30 22:15 39.68904 -74.15380 17696 ft 404 kts 38°
2026-04-30 22:16 39.71033 -74.13034 17424 ft 400 kts 38°
2026-04-30 22:16 39.73148 -74.10700 16961 ft 397 kts 38°
2026-04-30 22:17 39.79347 -74.03858 15764 ft 383 kts 38°
2026-04-30 22:17 39.81376 -74.01612 15367 ft 383 kts 38°
2026-04-30 22:17 39.85470 -73.97350 14479 ft 367 kts 28°
2026-04-30 22:18 39.87694 -73.95814 14031 ft 357 kts 22°
2026-04-30 22:18 39.92026 -73.92880 13055 ft 342 kts 24°
2026-04-30 22:19 39.96152 -73.90008 12190 ft 332 kts 24°
2026-04-30 22:19 39.98178 -73.88588 11752 ft 329 kts 24°
2026-04-30 22:19 40.02144 -73.85793 10981 ft 317 kts 24°
2026-04-30 22:20 40.04046 -73.84373 10647 ft 313 kts 27°
2026-04-30 22:20 40.07630 -73.81486 11016 ft 307 kts 27°
2026-04-30 22:20 40.09474 -73.80010 11070 ft 313 kts 27°
2026-04-30 22:21 40.11349 -73.78507 10852 ft 321 kts 27°
2026-04-30 22:21 40.13252 -73.76986 10468 ft 314 kts 27°
2026-04-30 22:21 40.15057 -73.75537 10283 ft 302 kts 27°
2026-04-30 22:21 40.16861 -73.74098 9778 ft 304 kts 27°
2026-04-30 22:22 40.18660 -73.72661 9291 ft 301 kts 27°
2026-04-30 22:22 40.20408 -73.71269 9081 ft 283 kts 27°
2026-04-30 22:22 40.22054 -73.69959 8736 ft 274 kts 27°
2026-04-30 22:22 40.23674 -73.68665 8210 ft 279 kts 27°
2026-04-30 22:23 40.25345 -73.67339 7685 ft 284 kts 27°
2026-04-30 22:23 40.27048 -73.65993 7155 ft 288 kts 27°
2026-04-30 22:23 40.28743 -73.64657 6461 ft 281 kts 27°
2026-04-30 22:23 40.30396 -73.63360 5778 ft 274 kts 27°
2026-04-30 22:24 40.32019 -73.62084 5096 ft 270 kts 27°
2026-04-30 22:24 40.33625 -73.60836 4492 ft 265 kts 27°
2026-04-30 22:24 40.35208 -73.59630 4048 ft 266 kts 27°
2026-04-30 22:24 40.36827 -73.58415 3606 ft 268 kts 27°
2026-04-30 22:25 40.38452 -73.57209 3160 ft 268 kts 27°
2026-04-30 22:25 40.40058 -73.56031 3029 ft 256 kts 27°
2026-04-30 22:25 40.41607 -73.54901 3005 ft 254 kts 27°
2026-04-30 22:25 40.43161 -73.53769 3017 ft 257 kts 27°
2026-04-30 22:26 40.46309 -73.51482 2999 ft 259 kts 27°
2026-04-30 22:26 40.47828 -73.50385 2946 ft 238 kts 27°
2026-04-30 22:26 40.49291 -73.49523 2894 ft 224 kts 13°
2026-04-30 22:27 40.50809 -73.49318 2974 ft 217 kts 354°
2026-04-30 22:27 40.52251 -73.49796 3110 ft 214 kts 335°
2026-04-30 22:27 40.54007 -73.52531 3028 ft 191 kts 286°
2026-04-30 22:28 40.55107 -73.55459 3001 ft 179 kts 303°
2026-04-30 22:28 40.55757 -73.56863 2999 ft 180 kts 300°
2026-04-30 22:29 40.57690 -73.61169 2620 ft 183 kts 301°
2026-04-30 22:29 40.58342 -73.62602 2367 ft 182 kts 300°
2026-04-30 22:30 40.60662 -73.67711 1493 ft 142 kts 298°
2026-04-30 22:31 40.62146 -73.70990 943 ft 139 kts 298°
2026-04-30 22:32 40.63615 -73.74244 402 ft 137 kts 299°
2026-04-30 22:32 40.64585 -73.76401 51 ft 137 kts 299°
2026-04-30 22:33 40.65215 -73.77924 18 ft 8 kts 211°
2026-04-30 22:33 40.65176 -73.77983 18 ft 9 kts 283°
2026-04-30 22:34 40.65356 -73.78403 22 ft 18 kts 276°
2026-04-30 22:35 40.65245 -73.78737 22 ft 23 kts 241°
2026-04-30 22:36 40.65195 -73.79544 21 ft 26 kts 240°
2026-04-30 22:36 40.65106 -73.79728 23 ft 15 kts 220°
2026-04-30 22:37 40.64745 -73.79791 24 ft 21 kts 158°
2026-04-30 22:37 40.64727 -73.79665 22 ft 16 kts 59°
2026-04-30 22:37 40.64804 -73.79507 21 ft 4 kts 12°
2026-04-30 22:38 40.64826 -73.79517 23 ft 2 kts 332°
2026-04-30 22:38 40.64849 -73.79534 21 ft 1 kts 331°
2026-04-30 22:39 40.64850 -73.79534 21 ft 0 kts 331°